Flag for Germany Weather past 2 weeks in Bad Oldesloe, Schleswig-Holstein, Germany

Now
55 °F

Fog.


Feels Like: 55 °F
Forecast: 63 / 85 °F
Wind: 2 mph from North

Location: Hamburg-Fuhlsbuettel

Current Time: Aug 30, 2015 at 3:50:17 AM

Latest Report: Aug 30, 2015 at 3:20 AM


Visibility: N/A

Pressure: 30.12 "Hg

Humidity: 94%

Dew point: 54 °F

Location of Bad OldesloeLocation

Historic Weather in Bad Oldesloe — Graph

°F

Bad Oldesloe temperature yesterday

Maximum temperature yesterday: 73 °F (at 4:20 PM)
Minimum temperature yesterday: 50 °F (at 3:50 AM)
Average temperature yesterday: 61 °F

Past Weeks' High & Low Weather Summary

 TemperatureHumidityPressure
High79 °F (Aug 22, 5:20 PM)100% (Aug 15, 7:20 AM)30.30 "Hg (Aug 15, 7:20 AM)
Low50 °F (Aug 29, 3:50 AM)30% (Aug 22, 12:50 PM)29.59 "Hg (Aug 24, 7:20 PM)
Average65 °F79%29.96 "Hg
* Reported Aug 15 2:20 AM — Aug 30 2:20 AM, Bad Oldesloe, Weather by CustomWeather, © 2015

Note: Actual official high and low records may vary slightly from our data, if they occured in-between our weather recording intervals... More about our weather records

Advertising

Bad Oldesloe weather history for previous 24 hours

 ConditionsComfort  
Time TempWeatherWind HumidityBarometerVisibility
2:20 AM
Sun, Aug 30
55 °FFog.3 mph94%30.12 "HgN/A
1:50 AM57 °FFog.2 mph88%30.15 "HgN/A
1:20 AM57 °FFog.3 mph88%30.15 "HgN/A
12:50 AM57 °FPassing clouds.1 mph94%30.15 "HgN/A
12:20 AM57 °FPassing clouds.1 mph94%30.15 "HgN/A
11:50 PM
Sat, Aug 29
57 °FClear.1 mph94%30.15 "Hg10 mi
11:20 PM59 °FClear.1 mph88%30.15 "Hg10 mi
10:50 PM59 °FClear.2 mph82%30.15 "Hg10 mi
10:20 PM59 °FClear.No wind88%30.15 "Hg10 mi
9:50 PM59 °FPassing clouds.3 mph88%30.15 "HgN/A
9:20 PM61 °FClear.2 mph83%30.15 "Hg10 mi
8:50 PM63 °FSunny.1 mph83%30.15 "Hg10 mi
8:20 PM63 °FPassing clouds.3 mph77%30.15 "HgN/A
7:50 PM68 °FSunny.6 mph56%30.15 "Hg10 mi
7:20 PM70 °FPassing clouds.8 mph53%30.15 "HgN/A
6:50 PM72 °FPassing clouds.9 mph50%30.15 "HgN/A
6:20 PM72 °FScattered clouds.9 mph50%30.15 "HgN/A
5:50 PM73 °FScattered clouds.8 mph47%30.15 "HgN/A
5:20 PM72 °FScattered clouds.7 mph50%30.18 "HgN/A
4:50 PM72 °FScattered clouds.7 mph53%30.18 "HgN/A
4:20 PM73 °FScattered clouds.8 mph47%30.18 "HgN/A
3:50 PM70 °FScattered clouds.7 mph50%30.18 "HgN/A
3:20 PM70 °FScattered clouds.8 mph53%30.21 "HgN/A
2:50 PM70 °FScattered clouds.9 mph50%30.21 "HgN/A
2:20 PM70 °FScattered clouds.8 mph50%30.21 "HgN/A
1:50 PM70 °FPartly sunny.6 mph53%30.21 "HgN/A
1:20 PM70 °FPartly sunny.6 mph53%30.21 "HgN/A
12:50 PM70 °FPartly sunny.7 mph53%30.21 "HgN/A
11:50 AM68 °FScattered clouds.7 mph56%30.24 "HgN/A
11:20 AM66 °FPartly sunny.7 mph64%30.24 "HgN/A
10:50 AM64 °FPartly sunny.6 mph73%30.24 "HgN/A
9:50 AM63 °FPassing clouds.3 mph77%30.24 "HgN/A
9:20 AM61 °FPassing clouds.3 mph83%30.24 "HgN/A
8:50 AM59 °FSunny.5 mph94%30.21 "Hg10 mi
7:50 AM54 °FPassing clouds.3 mph100%30.21 "HgN/A
7:20 AM50 °FFog.3 mph100%30.21 "HgN/A
6:50 AM52 °FCool.2 mph100%30.21 "HgN/A
6:20 AM50 °FFog.1 mph100%30.18 "Hg0 mi
5:50 AM52 °FCool.1 mph100%30.18 "HgN/A
5:20 AM50 °FCool.2 mph100%30.18 "HgN/A
4:50 AM50 °FCool.1 mph100%30.18 "HgN/A
4:20 AM52 °FCool.2 mph100%30.18 "HgN/A
3:50 AM50 °FCool.1 mph100%30.18 "HgN/A
3:20 AM52 °FCool.1 mph100%30.15 "HgN/A
Weather by CustomWeather, © 2015

See weather overviewHow to use our weather pages